DB0OFT-6 Weather Reports


time (UTC)temp
C
wind
direction
speed
KPH
gust
KPH
rain 1hr
cm
rain 24hr
cm
rain mn
cm
humidity
%
barometer
mb
20210518210902 7 157 1.6 0.0 0.00 0.00 0.00 76 967.6
20210518205930 8 180 0.0 0.0 0.00 0.00 0.00 75 967.9
20210518205903 8 180 0.0 0.0 0.00 0.00 0.00 75 967.8
20210518204902 8 180 0.0 0.0 0.00 0.00 0.00 75 967.9
20210518204023 8 157 0.0 0.0 0.00 0.00 0.00 75 967.9
20210518203902 8 180 0.0 0.0 0.00 0.00 0.00 75 967.9
20210518202901 8 157 0.0 0.0 0.00 0.00 0.00 75 967.9
20210518202058 8 180 0.0 0.0 0.00 0.00 0.00 74 967.8
20210518201901 8 180 0.0 0.0 0.00 0.00 0.00 74 967.8
20210518201231 9 180 1.6 0.0 0.00 0.00 0.00 73 967.7
20210518200902 9 180 1.6 0.0 0.00 0.00 0.00 73 967.7
20210518195902 9 180 0.0 0.0 0.00 0.00 0.00 73 967.7
20210518193906 9 157 0.0 0.0 0.00 0.00 0.00 69 967.5
20210518192901 9 337 0.0 0.0 0.00 0.00 0.00 69 967.4
20210518192552 10 22 0.0 0.0 0.00 0.00 0.00 68 967.3
20210518192439 10 22 0.0 0.0 0.00 0.00 0.00 68 967.3
20210518191902 10 22 0.0 0.0 0.00 0.00 0.00 68 967.3
20210518190901 10 22 0.0 0.0 0.00 0.00 0.00 68 967.3
20210518185633 10 315 0.0 0.0 0.00 0.00 0.00 66 967.4
20210518185418 10 315 0.0 0.0 0.00 0.00 0.00 66 967.4
20210518184903 10 315 0.0 0.0 0.00 0.00 0.00 66 967.4
20210518184613 10 247 0.0 0.0 0.00 0.00 0.00 66 967.2
20210518183903 10 247 0.0 0.0 0.00 0.00 0.00 66 967.2
20210518183115 11 157 0.0 0.0 0.00 0.00 0.00 66 967.1
20210518182903 11 157 0.0 0.0 0.00 0.00 0.00 66 967.1
20210518180902 11 157 0.0 0.0 0.00 0.00 0.00 65 966.9
20210518180218 11 157 0.0 0.0 0.00 0.00 0.00 65 966.7
20210518175903 11 157 0.0 0.0 0.00 0.00 0.00 65 966.7
20210518175305 11 180 0.0 0.0 0.00 0.00 0.00 65 966.6
20210518174902 11 180 0.0 0.0 0.00 0.00 0.00 65 966.6
20210518173037 12 180 1.6 0.0 0.00 0.00 0.00 63 966.3
20210518172903 12 180 1.6 0.0 0.00 0.00 0.00 63 966.3
20210518172236 12 157 0.0 0.0 0.00 0.00 0.00 63 966.4
20210518171902 12 157 3.2 0.0 0.00 0.00 0.00 63 966.4
20210518170902 12 157 0.0 0.0 0.00 0.00 0.00 63 966.4
20210518170302 12 112 0.0 0.0 0.00 0.00 0.00 64 966.3
20210518165902 12 112 0.0 0.0 0.00 0.00 0.00 64 966.3
20210518165234 12 202 1.6 0.0 0.00 0.00 0.00 63 966.3
20210518165222 12 157 0.0 0.0 0.00 0.00 0.00 62 966.3
20210518164902 11 67 0.0 0.0 0.00 0.00 0.00 63 966.3
20210518163902 12 202 1.6 0.0 0.00 0.00 0.00 63 966.3
20210518162902 12 157 0.0 0.0 0.00 0.00 0.00 62 966.3
20210518161902 12 135 1.6 0.0 0.00 0.00 0.00 62 966.4
20210518155902 12 157 0.0 0.0 0.00 0.00 0.00 60 966.8
20210518154943 13 67 1.6 0.0 0.00 0.00 0.00 59 966.7
20210518154902 13 67 1.6 0.0 0.00 0.00 0.00 59 966.7
20210518153910 14 135 0.0 0.0 0.00 0.00 0.00 57 966.3
20210518153902 13 180 0.0 0.0 0.00 0.00 0.00 58 966.2
20210518152902 14 135 0.0 0.0 0.00 0.00 0.00 57 966.3
20210518151903 15 112 0.0 0.0 0.00 0.00 0.00 57 966.3
20210518145904 15 157 1.6 0.0 0.00 0.00 0.00 56 966.3
20210518144902 15 180 0.0 0.0 0.00 0.00 0.00 55 966.3
20210518143835 14 90 0.0 0.0 0.00 0.00 0.00 57 966.3
20210518142902 15 157 1.6 0.0 0.00 0.00 0.00 57 966.4
20210518141902 14 90 0.0 0.0 0.00 0.00 0.00 57 966.3
20210518141757 14 180 0.0 0.0 0.00 0.00 0.00 57 966.4
20210518140902 14 180 0.0 0.0 0.00 0.00 0.00 57 966.4
20210518140357 14 157 1.6 0.0 0.00 0.00 0.00 59 966.4
20210518135903 14 157 1.6 0.0 0.00 0.00 0.00 59 966.4
20210518135028 14 67 0.0 0.0 0.00 0.00 0.00 59 966.4
20210518134902 14 67 0.0 0.0 0.00 0.00 0.00 59 966.4
20210518134049 14 202 0.0 0.0 0.00 0.00 0.00 62 966.5
20210518133902 14 202 0.0 0.0 0.00 0.00 0.00 62 966.5
20210518133213 14 112 0.0 0.0 0.00 0.00 0.00 63 966.7
20210518132903 14 112 0.0 0.0 0.00 0.00 0.00 63 966.7
20210518131108 13 180 0.0 0.0 0.00 0.00 0.00 67 966.5
20210518130902 13 180 0.0 0.0 0.00 0.00 0.00 67 966.5
20210518130248 12 157 1.6 0.0 0.00 0.00 0.00 69 966.7
20210518125903 12 157 1.6 0.0 0.00 0.00 0.00 69 966.7
20210518123905 11 157 0.0 0.0 0.00 0.00 0.00 63 967.0
20210518122959 15 292 1.6 0.0 0.00 0.00 0.00 56 967.0
20210518122902 15 292 1.6 0.0 0.00 0.00 0.00 56 967.0
20210518121945 16 67 0.0 0.0 0.00 0.00 0.00 52 966.5
20210518121902 16 67 0.0 0.0 0.00 0.00 0.00 52 966.5
20210518121154 16 157 3.2 0.0 0.00 0.00 0.00 53 966.5
20210518120903 16 157 3.2 0.0 0.00 0.00 0.00 53 966.5
20210518115348 16 157 1.6 0.0 0.00 0.00 0.00 55 966.8
20210518114901 15 135 1.6 0.0 0.00 0.00 0.00 54 966.8
20210518113902 16 157 1.6 0.0 0.00 0.00 0.00 55 966.8
20210518113113 16 157 0.0 0.0 0.00 0.00 0.00 56 967.0
20210518112902 16 157 0.0 0.0 0.00 0.00 0.00 56 967.0
20210518112311 16 180 1.6 0.0 0.00 0.00 0.00 58 967.0
20210518112306 15 157 3.2 0.0 0.00 0.00 0.00 58 967.1
20210518111903 16 180 1.6 0.0 0.00 0.00 0.00 58 967.0
20210518110902 15 157 3.2 0.0 0.00 0.00 0.00 58 967.1
20210518105901 15 157 1.6 0.0 0.00 0.00 0.00 61 967.4
20210518104902 14 202 1.6 0.0 0.00 0.00 0.00 63 967.4
20210518103902 13 157 0.0 0.0 0.00 0.00 0.00 61 967.3
20210518102903 15 157 1.6 0.0 0.00 0.00 0.00 62 967.4
20210518102158 14 135 0.0 0.0 0.00 0.00 0.00 63 967.4
20210518101902 14 135 0.0 0.0 0.00 0.00 0.00 63 967.4
20210518100905 14 202 1.6 0.0 0.00 0.00 0.00 65 967.4
20210518095534 16 135 1.6 0.0 0.00 0.00 0.00 61 967.4
20210518095000 16 135 1.6 0.0 0.00 0.00 0.00 61 967.4
20210518094903 16 135 1.6 0.0 0.00 0.00 0.00 61 967.4
20210518094105 16 180 3.2 0.0 0.00 0.00 0.00 63 967.4
20210518093902 16 180 3.2 0.0 0.00 0.00 0.00 63 967.4
20210518093200 15 157 1.6 0.0 0.00 0.00 0.00 64 967.4
20210518092903 15 157 1.6 0.0 0.00 0.00 0.00 64 967.4
20210518092311 15 22 0.0 0.0 0.00 0.00 0.00 66 967.4
20210518091901 15 22 0.0 0.0 0.00 0.00 0.00 66 967.4
20210518091153 15 180 1.6 0.0 0.00 0.00 0.00 69 967.5
20210518090901 15 180 1.6 0.0 0.00 0.00 0.00 69 967.5
20210518085929 11 157 1.6 0.0 0.00 0.00 0.00 76 967.8
20210518085901 13 135 3.2 0.0 0.00 0.00 0.00 74 967.7
20210518082902 11 157 1.6 0.0 0.00 0.00 0.00 76 967.8
20210518082143 10 157 0.0 0.0 0.00 0.00 0.00 77 967.7
20210518081903 10 157 0.0 0.0 0.00 0.00 0.00 77 967.7
20210518080902 10 157 1.6 0.0 0.00 0.00 0.00 78 967.8
20210518080118 10 202 1.6 0.0 0.00 0.00 0.00 78 967.9
20210518075901 10 202 1.6 0.0 0.00 0.00 0.00 78 967.9
20210518073902 9 180 3.2 0.0 0.00 0.00 0.00 78 968.1
20210518072902 9 135 0.0 0.0 0.00 0.00 0.00 78 967.8
20210518072435 10 157 1.6 0.0 0.00 0.00 0.00 78 967.7
20210518071902 10 135 0.0 0.0 0.00 0.00 0.00 78 967.7
20210518070901 10 157 1.6 0.0 0.00 0.00 0.00 78 967.7
20210518065901 10 157 1.6 0.0 0.00 0.00 0.00 79 967.5
20210518065221 9 157 1.6 0.0 0.00 0.00 0.00 80 967.4
20210518064907 9 157 1.6 0.0 0.00 0.00 0.00 80 967.4
20210518064421 8 202 1.6 0.0 0.00 0.00 0.00 81 967.4
20210518063901 8 202 1.6 0.0 0.00 0.00 0.00 81 967.4
20210518063132 8 157 1.6 0.0 0.00 0.00 0.00 81 967.2
20210518062901 8 157 1.6 0.0 0.00 0.00 0.00 81 967.2
20210518062111 8 135 0.0 0.0 0.00 0.00 0.00 80 967.3
20210518061902 8 135 0.0 0.0 0.00 0.00 0.00 80 967.3
20210518060235 8 135 0.0 0.0 0.00 0.00 0.00 80 967.0
20210518055902 8 135 0.0 0.0 0.00 0.00 0.00 80 967.0
20210518054901 8 180 1.6 0.0 0.00 0.00 0.00 80 966.8
20210518053901 8 157 1.6 0.0 0.00 0.00 0.00 80 966.9
20210518050901 9 202 3.2 0.0 0.00 0.00 0.00 79 966.8
20210518050145 9 180 1.6 0.0 0.00 0.00 0.00 79 966.6
20210518045901 9 180 1.6 0.0 0.00 0.00 0.00 79 966.6
20210518045150 8 180 1.6 0.0 0.00 0.00 0.00 80 966.4
20210518044902 8 180 1.6 0.0 0.00 0.00 0.00 80 966.6
20210518043901 8 180 1.6 0.0 0.00 0.00 0.00 80 966.4
20210518042901 8 180 0.0 0.0 0.00 0.00 0.00 80 966.3
20210518042307 8 180 0.0 0.0 0.00 0.00 0.00 80 966.3
20210518041901 8 180 0.0 0.0 0.00 0.00 0.00 80 966.3
20210518040902 8 180 0.0 0.0 0.00 0.00 0.00 80 966.2
20210518040033 8 180 0.0 0.0 0.00 0.00 0.00 80 966.1
20210518035901 8 180 0.0 0.0 0.00 0.00 0.00 80 966.1
20210518035220 8 180 0.0 0.0 0.00 0.00 0.00 79 966.1
20210518034901 8 180 0.0 0.0 0.00 0.00 0.00 79 966.1
20210518034040 8 157 0.0 0.0 0.00 0.00 0.00 79 966.2
20210518033902 8 157 0.0 0.0 0.00 0.00 0.00 79 966.2
20210518032903 8 157 0.0 0.0 0.00 0.00 0.00 79 966.2
20210518031902 8 180 0.0 0.0 0.00 0.00 0.00 78 966.2
20210518030310 8 135 0.0 0.0 0.00 0.00 0.00 77 966.2
20210518025902 8 135 0.0 0.0 0.00 0.00 0.00 77 966.2
20210518024902 9 112 0.0 0.0 0.00 0.00 0.00 77 966.1
20210518023246 9 157 0.0 0.0 0.00 0.00 0.00 75 965.8
20210518022903 9 157 0.0 0.0 0.00 0.00 0.00 75 965.8
20210518021613 9 157 1.6 0.0 0.00 0.00 0.00 75 965.6
20210518020903 9 157 1.6 0.0 0.00 0.00 0.00 75 965.6
20210518014903 8 180 0.0 0.0 0.00 0.00 0.00 75 965.6
20210518014109 8 157 0.0 0.0 0.00 0.00 0.00 75 965.5
20210518013903 8 157 0.0 0.0 0.00 0.00 0.00 75 965.5
20210518013214 8 180 0.0 0.0 0.00 0.00 0.00 75 965.6
20210518013205 8 180 0.0 0.0 0.00 0.00 0.00 75 965.5
20210518012902 8 157 0.0 0.0 0.00 0.00 0.00 75 965.5
20210518011902 8 180 0.0 0.0 0.00 0.00 0.00 75 965.6
20210518010902 8 180 0.0 0.0 0.00 0.00 0.00 75 965.5
20210518010033 8 202 1.6 0.0 0.00 0.00 0.00 75 965.3
20210518005902 8 202 1.6 0.0 0.00 0.00 0.00 75 965.3
20210518005101 9 157 3.2 0.0 0.00 0.00 0.00 74 965.4
20210518004903 9 157 3.2 0.0 0.00 0.00 0.00 74 965.4
20210518004105 9 180 1.6 0.0 0.00 0.00 0.00 75 965.5
20210518003903 9 180 1.6 0.0 0.00 0.00 0.00 75 965.5
20210518003305 9 180 0.0 0.0 0.00 0.00 0.00 75 965.3
20210518002902 9 180 0.0 0.0 0.00 0.00 0.00 75 965.3
20210518002440 9 180 1.6 0.0 0.00 0.00 0.00 75 965.3
20210518001902 9 180 1.6 0.0 0.00 0.00 0.00 75 965.3
20210518001019 9 157 0.0 0.0 0.00 0.00 0.00 74 965.3
20210518000902 9 157 0.0 0.0 0.00 0.00 0.00 74 965.3
20210518000102 9 157 0.0 0.0 0.00 0.00 0.00 74 965.6
20210517235902 9 157 0.0 0.0 0.00 0.00 0.00 74 965.6
20210517235307 8 180 0.0 0.0 0.00 0.00 0.00 74 965.5
20210517234902 8 180 0.0 0.0 0.00 0.00 0.00 74 965.5
20210517234305 8 135 1.6 0.0 0.00 0.00 0.00 73 965.4
20210517233903 8 135 1.6 0.0 0.00 0.00 0.00 73 965.4
20210517233110 8 180 1.6 0.0 0.00 0.00 0.00 73 965.4
20210517232902 8 180 1.6 0.0 0.00 0.00 0.00 73 965.4
20210517232222 8 225 0.0 0.0 0.00 0.00 0.00 73 965.3
20210517231903 8 225 0.0 0.0 0.00 0.00 0.00 73 965.3
20210517230839 9 225 1.6 0.0 0.00 0.00 0.00 73 965.2
20210517225903 9 225 1.6 0.0 0.00 0.00 0.00 73 965.2
20210517225248 9 180 1.6 0.0 0.00 0.00 0.00 73 965.3
20210517224902 9 180 1.6 0.0 0.00 0.00 0.00 73 965.3
20210517224303 9 180 0.0 0.0 0.00 0.00 0.00 73 965.3
20210517223902 9 180 0.0 0.0 0.00 0.00 0.00 73 965.3
20210517223006 9 247 0.0 0.0 0.00 0.00 0.00 73 965.3
20210517222906 9 247 0.0 0.0 0.00 0.00 0.00 73 965.3
20210517222433 9 135 0.0 0.0 0.00 0.00 0.00 73 965.3
20210517221904 9 135 0.0 0.0 0.00 0.00 0.00 73 965.3
20210517221107 9 157 0.0 0.0 0.00 0.00 0.00 73 965.3
20210517220902 9 157 0.0 0.0 0.00 0.00 0.00 73 965.3
20210517220214 9 157 0.0 0.0 0.00 0.00 0.00 72 965.3
20210517215902 9 157 0.0 0.0 0.00 0.00 0.00 72 965.3
20210517215015 9 202 0.0 0.0 0.00 0.00 0.00 72 965.2
20210517214902 9 202 0.0 0.0 0.00 0.00 0.00 72 965.2
20210517213903 9 22 0.0 0.0 0.00 0.00 0.00 72 965.1
20210517213240 9 157 0.0 0.0 0.00 0.00 0.00 71 964.9
20210517212901 9 157 0.0 0.0 0.00 0.00 0.00 71 964.9
20210517212423 9 180 4.8 0.0 0.00 0.00 0.00 72 964.7
20210517211901 9 180 4.8 0.0 0.00 0.00 0.00 72 964.7